ONEWEB-0138

Last updated on Mon Jan 18 2021 00:02:03 GMT+0000 (Coordinated Universal Time)

1 47284U 20100AC 21017.58334491 -.01448063 00000-0 -13399+0 0 9998 2 47284 87.3529 29.1192 0012481 157.6806 90.6964 14.98051935 1778

Satellite not in orbit